Location: Gradaro
(45.0833°N, 10.8833°E)
Time: 14:18:37
(UTC+00:00)

ARGOS Delta rocket - Pass Details

Date: 29 November 2020
Orbit: 634 x 839 km, 96.5° (Epoch: 22 January)

Event Time Altitude Azimuth Distance (km) Brightness Sun altitude
Rises 03:58:13 0° 9° (N) 3,295 7.3 -26.6°
Reaches altitude 10° 04:00:37 10° 8° (N) 2,333 6.5 -26.2°
Enters shadow 04:04:44 56° 351° (N) 893 4.1 -25.5°
